TimeEST,TemperatureF,Dew PointF,Humidity,Sea Level PressureIn,VisibilityMPH,Wind Direction,Wind SpeedMPH,Gust SpeedMPH,PrecipitationIn,Events,Conditions,WindDirDegrees,DateUTC
12:53 AM,35.1,34.0,96,30.11,0.2,SE,3.5,-,N/A,Fog,Fog,140,2012-12-03 05:53:00
1:53 AM,37.0,36.0,96,30.10,0.2,East,3.5,-,N/A,Fog,Fog,90,2012-12-03 06:53:00
2:53 AM,37.9,37.0,97,30.10,0.2,ESE,4.6,-,N/A,Fog,Fog,110,2012-12-03 07:53:00
3:42 AM,37.4,37.4,100,30.09,0.2,ENE,3.5,-,N/A,Fog,Fog,70,2012-12-03 08:42:00
3:53 AM,39.0,37.9,96,30.10,0.2,East,4.6,-,N/A,Fog,Fog,90,2012-12-03 08:53:00
4:01 AM,39.2,39.2,100,30.08,0.5,East,3.5,-,N/A,Fog,Fog,100,2012-12-03 09:01:00
4:13 AM,41.0,39.2,93,30.08,1.8,ESE,5.8,-,N/A,,Overcast,120,2012-12-03 09:13:00
4:20 AM,41.0,39.2,93,30.08,2.0,ESE,4.6,-,N/A,,Overcast,120,2012-12-03 09:20:00
4:28 AM,42.8,39.2,87,30.08,2.5,ENE,3.5,-,N/A,,Overcast,70,2012-12-03 09:28:00
4:53 AM,43.0,41.0,93,30.09,2.5,East,4.6,-,N/A,,Overcast,100,2012-12-03 09:53:00
5:27 AM,44.6,42.8,93,30.06,1.8,East,5.8,-,N/A,,Overcast,80,2012-12-03 10:27:00
5:45 AM,44.6,42.8,93,30.06,0.5,East,3.5,-,N/A,Fog,Fog,80,2012-12-03 10:45:00
5:53 AM,45.0,44.1,97,30.07,0.5,ENE,4.6,-,N/A,Fog,Fog,70,2012-12-03 10:53:00
6:03 AM,46.4,44.6,93,30.05,0.2,East,4.6,-,N/A,Fog,Fog,90,2012-12-03 11:03:00
6:32 AM,46.4,44.6,93,30.05,0.2,ESE,5.8,-,N/A,Fog,Fog,120,2012-12-03 11:32:00
6:43 AM,46.4,46.4,100,30.05,0.2,SE,5.8,-,N/A,Fog,Fog,130,2012-12-03 11:43:00
6:53 AM,46.9,46.0,97,30.06,0.2,SE,5.8,-,N/A,Fog,Fog,140,2012-12-03 11:53:00
7:35 AM,48.2,48.2,100,30.05,0.2,SSE,6.9,-,N/A,Fog,Fog,150,2012-12-03 12:35:00
7:53 AM,50.0,48.9,96,30.06,0.2,SSE,8.1,-,N/A,Fog,Fog,160,2012-12-03 12:53:00
8:09 AM,51.8,48.2,88,30.04,0.5,SE,9.2,-,N/A,Fog,Fog,140,2012-12-03 13:09:00
8:20 AM,51.8,50.0,94,30.04,0.2,SE,8.1,-,N/A,Fog,Fog,140,2012-12-03 13:20:00
8:42 AM,51.8,51.8,100,30.04,0.5,SSE,8.1,-,N/A,Fog,Fog,150,2012-12-03 13:42:00
8:53 AM,52.0,51.1,97,30.05,0.8,SE,8.1,-,N/A,,Overcast,140,2012-12-03 13:53:00
9:32 AM,53.6,51.8,94,30.04,1.2,SE,8.1,-,N/A,,Overcast,140,2012-12-03 14:32:00
9:53 AM,53.6,51.8,94,30.03,1.8,SE,10.4,-,N/A,,Overcast,140,2012-12-03 14:53:00
10:35 AM,55.4,53.6,94,30.02,2.0,SSE,10.4,-,N/A,,Overcast,150,2012-12-03 15:35:00
10:53 AM,55.9,54.0,93,30.03,2.5,SE,9.2,-,N/A,,Overcast,140,2012-12-03 15:53:00
11:20 AM,55.4,55.4,100,30.00,3.0,SSE,10.4,-,N/A,,Overcast,150,2012-12-03 16:20:00
11:53 AM,57.0,55.0,93,29.99,4.0,SSE,15.0,-,N/A,,Overcast,160,2012-12-03 16:53:00
12:53 PM,60.1,55.9,86,29.95,5.0,South,13.8,-,N/A,,Overcast,170,2012-12-03 17:53:00
1:53 PM,60.8,57.2,88,29.92,5.0,South,12.7,-,N/A,,Overcast,170,2012-12-03 18:53:00
2:53 PM,61.0,57.9,90,29.91,6.0,South,15.0,-,0.00,,Light Drizzle,180,2012-12-03 19:53:00
3:53 PM,62.1,57.9,86,29.89,7.0,South,13.8,-,0.00,,Overcast,170,2012-12-03 20:53:00
4:44 PM,62.6,57.2,82,29.87,7.0,South,18.4,-,N/A,,Overcast,170,2012-12-03 21:44:00
4:53 PM,62.1,57.9,86,29.87,7.0,South,18.4,24.2,N/A,,Mostly Cloudy,170,2012-12-03 21:53:00
5:29 PM,62.6,57.2,82,29.85,9.0,South,16.1,-,N/A,,Overcast,170,2012-12-03 22:29:00
5:53 PM,62.1,57.9,86,29.86,8.0,South,13.8,-,0.01,,Overcast,170,2012-12-03 22:53:00
6:17 PM,62.6,57.2,82,29.85,8.0,South,15.0,-,N/A,,Mostly Cloudy,180,2012-12-03 23:17:00
6:35 PM,62.6,57.2,82,29.85,9.0,South,16.1,-,N/A,,Scattered Clouds,180,2012-12-03 23:35:00
6:53 PM,63.0,57.9,84,29.86,9.0,South,15.0,-,N/A,,Mostly Cloudy,190,2012-12-03 23:53:00
7:53 PM,64.0,57.9,80,29.85,10.0,South,17.3,-,N/A,,Mostly Cloudy,190,2012-12-04 00:53:00
8:53 PM,63.0,57.9,84,29.83,10.0,South,17.3,25.3,N/A,,Scattered Clouds,180,2012-12-04 01:53:00
9:53 PM,64.0,57.0,78,29.83,10.0,SSW,16.1,26.5,N/A,,Overcast,200,2012-12-04 02:53:00
10:53 PM,64.9,55.9,73,29.82,10.0,SSW,17.3,25.3,0.00,Rain,Light Rain,210,2012-12-04 03:53:00
11:39 PM,64.4,55.4,73,29.83,10.0,SSW,18.4,26.5,0.00,,Overcast,210,2012-12-04 04:39:00
11:53 PM,64.0,55.0,73,29.82,10.0,SSW,20.7,26.5,0.00,,Mostly Cloudy,210,2012-12-04 04:53:00